EHI
0 0 0 0 0 0 0 0 0 0 0 0 1 3 9 16 23 29 33 35 35 34 33 30 26 22 20 22 23 19 13 10 6 4 4 5 5 3 1 0 0 0 0 0
0 0 0 0 0 0 0 0 0 0 0 0 1 2 8 16 23 27 27 25 25 27 26 22 17 14 13 15 18 17 15 14 13 11 9 7 5 4 2 1 0 0 0 0
0 0 0 0 0 0 0 0 0 0 0 0 1 2 6 13 19 22 22 20 19 20 20 17 12 7 6 8 12 18 27 32 29 24 15 7 4 3 2 1 0 0 0 0
0 0 0 0 0 0 0 0 0 0 0 0 0 2 6 9 12 16 18 19 18 15 16 17 12 6 4 6 14 32 51 56 50 37 21 8 3 1 1 1 1 1 0 0
0 0 0 0 0 0 0 0 0 0 0 0 0 2 4 5 6 10 12 16 16 13 12 12 11 7 5 7 21 48 71 75 66 49 29 13 4 1 0 1 2 1 0 0
0 0 0 0 0 0 0 0 0 0 0 0 0 1 2 2 3 4 6 11 16 15 10 9 8 9 9 12 26 53 77 81 70 53 32 17 8 3 1 1 1 0 0 0
0 0 0 0 0 0 0 0 0 0 0 0 0 0 1 1 1 1 3 8 15 16 11 8 7 10 13 17 28 52 72 75 63 46 28 16 8 4 2 1 0 0 0 0
0 0 0 0 0 0 0 0 0 0 0 0 0 0 0 0 0 0 1 5 10 12 10 6 5 8 13 18 29 48 64 64 51 35 23 14 7 3 1 0 0 0 0 0
0 0 0 0 0 0 0 0 0 0 0 0 0 0 0 0 0 0 1 3 5 7 7 6 4 5 9 19 30 44 53 51 36 24 16 10 5 2 0 0 0 0 0 0
0 0 0 0 0 0 0 0 0 0 0 0 0 0 0 0 0 0 1 2 2 3 4 5 4 4 8 17 28 35 39 35 23 13 8 4 3 2 1 1 0 0 0 0
0 0 0 0 0 0 0 0 0 0 0 0 0 0 0 0 0 0 0 0 0 0 1 2 2 4 7 12 17 22 24 21 13 6 2 1 1 1 2 1 0 0 0 0
0 0 0 0 0 0 0 0 0 0 0 0 0 0 0 0 0 0 0 0 0 0 0 0 1 4 6 7 8 10 10 9 5 2 1 1 1 1 1 1 0 0 0 0
0 0 0 0 0 0 0 0 0 0 0 0 0 0 0 0 0 0 0 0 0 0 0 2 6 10 9 6 4 3 2 2 1 1 1 2 2 2 2 2 1 1 1 0
0 0 0 0 0 0 0 0 0 0 0 0 0 0 0 0 0 0 0 0 0 0 1 7 20 25 19 10 4 1 0 0 0 0 2 3 3 3 4 4 3 2 1 1
0 0 0 0 0 0 0 0 0 0 0 0 0 0 0 0 0 0 0 0 0 0 1 11 31 41 33 19 8 2 1 1 1 1 2 3 3 3 4 5 5 3 1 0
0 0 0 0 0 0 0 0 0 0 0 0 0 0 0 0 0 0 0 0 0 0 1 11 33 50 50 35 20 12 9 7 6 5 4 3 3 3 3 3 3 2 1 1
0 0 0 0 0 0 0 1 0 0 1 0 0 0 0 0 0 0 0 1 1 0 1 9 28 52 61 50 37 31 25 18 15 12 8 5 4 4 4 3 3 3 4 5
0 0 0 0 0 0 0 0 0 0 1 1 1 1 0 0 0 0 0 1 1 0 1 6 19 37 50 50 47 46 39 30 24 19 14 9 7 7 7 6 6 8 10 11
0 0 0 0 0 0 0 0 0 1 2 3 4 2 1 0 0 0 0 1 1 0 1 3 7 17 33 46 54 54 48 39 31 24 20 15 12 11 11 11 11 13 14 13
0 0 0 0 0 0 0 0 1 1 2 3 4 2 1 0 0 1 2 4 6 7 8 7 6 12 33 57 67 66 60 51 41 33 28 24 20 19 18 18 18 16 12 10
0 0 0 0 0 1 1 2 4 4 3 2 1 1 0 0 1 4 11 17 20 21 20 19 20 29 50 73 81 80 75 67 56 45 38 33 28 23 21 24 25 17 9 6
0 0 0 0 2 3 3 3 5 5 3 1 0 0 0 1 4 11 23 31 32 31 30 32 40 53 69 82 88 87 86 81 70 58 49 42 35 26 21 25 25 17 9 6
0 1 1 3 5 6 4 2 2 2 1 0 0 0 0 2 6 15 25 32 32 31 31 35 45 59 71 77 80 81 83 83 76 68 61 53 44 33 27 24 19 13 9 6
1 1 3 6 8 7 4 1 0 0 0 0 0 0 0 1 5 12 17 21 22 23 25 28 35 43 50 54 57 61 65 69 69 67 63 55 44 36 31 25 16 10 8 6
1 2 3 8 11 10 5 1 0 0 0 0 0 0 0 0 2 6 9 11 12 13 14 16 20 23 25 28 32 36 42 49 54 54 49 40 30 26 26 23 16 10 7 5
3 3 4 10 15 12 5 1 0 0 0 0 0 0 0 0 1 3 5 6 7 7 8 9 11 12 13 14 17 22 28 37 43 44 37 25 18 17 20 20 15 8 4 3
Wind_Speed
13 10 10 9 8 9 8 4 2 3 5 4 1 5 7 6 4 3 5 6 7 7 9 9 10 11 11 9 8 6 6 5 2 1 0 1 1 1 1 2 5 3 3 4
11 9 11 9 8 8 7 7 5 3 3 2 1 1 5 5 4 5 6 7 8 8 9 9 8 10 11 9 8 6 6 6 4 2 1 1 1 2 1 1 2 2 3 3
12 6 5 8 8 7 5 8 7 4 2 3 3 2 2 5 5 6 8 8 9 10 11 11 10 10 10 10 9 8 7 6 5 3 2 1 0 2 1 1 1 3 2 2
8 8 8 8 7 6 4 7 7 5 2 2 5 3 4 7 6 7 8 9 9 10 12 12 11 10 10 10 10 8 7 6 5 4 2 2 2 2 2 0 1 2 1 2
9 9 10 8 5 7 7 6 8 11 9 4 6 4 5 8 8 9 10 10 10 11 13 13 13 11 11 10 9 8 8 7 5 4 3 2 2 2 2 3 2 1 3 3
12 10 9 7 5 4 8 5 7 9 6 4 11 7 6 7 8 9 10 11 11 12 12 12 12 10 9 8 7 7 8 7 5 5 3 2 2 2 3 3 4 3 3 2
6 7 8 7 9 2 9 7 1 2 2 8 12 4 7 8 9 10 12 12 12 12 11 12 11 10 9 8 7 7 8 7 6 5 4 3 2 2 4 5 4 3 3 2
4 2 5 8 10 7 8 9 5 5 4 3 4 5 10 10 9 9 11 12 13 13 12 13 12 10 9 8 7 7 8 7 6 5 4 3 2 3 3 2 2 3 3 3
5 3 7 9 9 9 8 6 8 9 8 3 2 7 13 10 10 9 11 12 12 12 13 12 12 10 9 7 7 6 7 7 6 5 5 4 4 4 4 3 4 4 3 4
7 7 5 4 7 8 8 9 7 6 6 2 5 5 4 9 10 9 9 11 11 11 11 11 11 10 9 8 7 6 7 6 5 5 5 5 6 6 5 5 5 4 4 5
6 7 7 3 5 9 8 7 5 6 7 6 2 1 5 6 9 10 11 11 11 11 11 10 9 9 9 9 9 7 7 7 6 5 5 4 3 3 4 5 5 5 5 5
5 6 7 6 9 11 13 9 5 5 5 6 3 2 3 1 5 6 7 10 10 10 9 10 10 9 8 9 9 9 8 8 7 6 6 5 5 5 5 6 5 5 5 5
5 5 8 5 11 10 12 12 8 6 5 6 5 0 2 2 2 4 4 6 7 8 7 8 9 9 8 7 8 9 9 9 8 8 7 6 6 6 6 5 5 5 5 5
5 7 10 8 7 9 10 12 10 8 6 6 5 4 4 3 2 3 4 4 5 7 7 6 7 8 7 7 7 6 8 8 7 7 7 7 6 6 5 5 5 5 5 5
6 9 10 12 11 11 13 11 9 8 8 9 7 5 2 0 2 3 2 4 4 6 8 7 7 8 7 7 7 7 7 6 6 6 6 6 6 6 5 5 4 4 5 6
5 8 12 14 14 13 14 12 9 8 8 7 7 3 4 4 3 2 1 2 4 5 7 9 9 10 10 9 8 8 8 7 7 6 6 5 5 5 4 4 5 5 5 5
8 8 11 13 13 12 11 10 7 6 6 4 3 1 1 1 1 1 1 3 3 5 6 8 10 10 10 10 10 9 9 8 8 8 7 6 6 6 5 6 5 4 4 5
7 8 7 12 12 14 6 6 4 5 4 2 1 2 2 2 1 1 2 3 2 2 4 6 8 10 11 11 11 10 10 9 9 9 9 8 7 6 5 5 5 4 4 4
6 7 9 10 11 10 7 7 8 5 5 8 6 5 6 5 4 4 4 1 2 2 1 2 5 9 10 11 11 12 11 10 11 10 9 9 8 7 6 5 5 4 4 5
7 5 9 11 12 10 3 1 2 3 2 11 11 10 10 9 5 4 6 4 4 3 1 3 5 5 6 8 9 11 11 11 11 10 9 8 7 6 6 6 5 5 4 6
9 10 12 11 11 4 5 2 0 1 2 8 9 9 9 8 7 8 9 8 7 6 5 3 2 3 3 4 6 8 9 9 9 8 8 8 7 7 7 6 5 5 6 7
13 11 10 7 8 1 5 6 6 3 3 6 8 9 9 9 9 10 12 12 12 12 10 7 4 3 2 1 3 5 6 5 5 6 7 7 7 8 8 7 7 7 7 8
7 5 3 1 0 5 6 7 3 2 4 6 7 9 10 10 11 12 13 13 13 14 13 11 10 8 7 5 2 3 3 3 4 5 6 6 7 7 6 6 7 7 7 8
4 4 4 3 8 8 7 7 6 6 7 8 10 11 11 11 12 12 12 12 12 13 13 13 12 11 9 9 7 5 4 3 4 5 5 5 6 7 7 7 7 8 8 8
6 3 4 3 8 10 6 5 7 9 10 10 11 12 12 12 12 11 10 11 11 11 11 11 10 9 9 9 8 7 6 4 5 6 6 7 9 9 8 8 8 9 8 8
5 4 2 3 7 8 8 7 8 9 9 9 10 11 12 12 11 11 10 9 9 10 10 9 10 10 9 8 8 7 6 6 6 6 7 8 8 8 8 9 10 15 16 16
Wind_Direction
256 250 280 299 309 311 330 343 295 255 252 278 151 153 172 200 184 145 125 130 136 144 137 140 142 143 143 142 143 152 152 143 160 153 124 27 46 357 2 91 96 44 17 11
258 258 270 291 300 305 330 318 305 256 240 278 21 118 147 162 157 148 140 152 151 150 144 150 154 159 155 156 159 163 167 169 182 162 161 187 241 283 271 67 126 103 47 355
283 276 279 288 300 309 327 303 282 267 175 61 17 307 194 165 155 149 157 165 166 166 161 162 175 173 168 169 175 184 181 175 184 180 222 263 210 271 297 48 68 71 30 339
298 310 288 289 298 300 285 276 298 311 277 234 206 217 202 178 174 180 173 168 168 172 166 169 182 181 183 182 185 186 175 177 178 189 228 272 291 306 332 348 77 65 301 275
285 273 274 277 290 302 305 327 359 8 343 337 270 238 173 176 183 187 180 178 176 177 175 179 187 188 193 193 189 180 171 173 178 193 210 236 287 328 358 9 353 322 264 224
291 293 295 306 284 288 305 318 22 23 2 305 249 237 153 174 183 176 174 177 179 181 181 181 189 187 193 195 185 169 161 168 174 186 214 215 260 302 318 313 301 290 280 238
279 306 312 314 287 271 288 289 357 35 221 237 235 207 130 147 154 163 168 173 178 182 183 182 190 189 190 194 183 167 156 163 173 187 204 212 230 258 254 252 266 274 292 303
289 263 240 255 271 276 266 284 303 294 271 233 207 131 134 134 134 146 156 165 176 183 188 190 192 192 188 191 183 172 157 161 173 189 196 199 215 253 269 282 318 315 304 304
308 273 206 234 269 290 292 298 299 294 305 339 349 103 121 139 149 155 158 162 178 186 188 190 190 190 183 180 171 165 153 161 177 192 187 190 207 234 277 306 281 267 266 280
301 310 283 239 261 261 277 302 309 315 320 344 22 356 149 163 165 168 171 173 179 184 189 189 185 181 171 168 158 155 151 161 174 195 204 214 200 210 222 242 266 282 287 282
296 297 289 293 324 315 273 264 295 310 324 333 38 292 162 178 170 177 183 181 181 186 188 180 175 169 168 168 160 159 158 165 180 201 211 235 234 237 236 234 241 247 253 262
315 301 310 359 349 333 309 290 271 287 314 308 331 89 79 120 153 168 179 175 180 183 182 172 164 159 167 174 167 166 170 180 188 198 201 208 217 229 242 252 251 252 252 253
338 312 298 344 1 341 312 299 283 275 279 289 312 314 218 243 164 151 155 157 166 167 176 170 158 160 172 177 174 175 181 191 193 193 195 204 211 222 229 239 248 253 256 258
290 281 290 289 241 234 246 260 259 253 268 286 294 280 243 221 190 155 154 162 175 165 169 174 156 159 170 174 173 179 188 191 191 190 196 202 208 221 230 238 244 248 253 258
280 281 293 296 276 255 258 260 259 261 270 279 282 279 293 179 125 117 140 168 184 174 176 177 168 163 171 177 178 185 192 190 193 192 201 204 205 213 223 232 240 248 254 264
269 284 294 291 290 289 286 281 272 274 274 277 288 316 53 79 98 106 149 200 196 195 195 186 180 175 179 186 189 192 194 191 185 195 207 209 208 215 226 236 240 244 245 252
280 281 279 284 296 295 288 297 288 294 288 280 287 321 100 150 93 42 313 271 228 210 207 193 184 183 184 189 192 196 193 192 190 194 205 209 205 214 222 238 246 252 261 265
263 272 278 278 281 278 286 310 282 262 286 303 326 19 30 27 64 259 259 277 275 254 233 201 188 184 186 191 193 194 194 193 196 198 203 206 208 215 216 222 236 247 252 259
265 249 261 272 275 276 296 343 347 344 358 6 26 36 22 13 352 27 45 343 290 266 253 215 209 205 193 194 192 188 196 194 200 203 203 204 205 209 213 220 229 236 245 253
277 238 253 262 271 278 306 28 323 296 21 12 20 18 5 359 341 37 28 7 325 310 272 223 227 225 199 192 187 186 196 200 204 205 200 199 196 201 209 217 222 232 239 250
259 237 241 257 269 278 41 30 276 224 43 354 1 355 352 9 352 349 358 7 3 0 354 332 276 251 229 189 183 193 200 206 205 202 198 194 191 194 206 214 217 224 237 248
243 238 236 254 271 252 42 30 43 58 16 354 354 355 0 359 1 12 18 19 18 13 8 0 348 337 317 221 185 204 215 214 204 203 203 197 194 208 215 210 216 221 233 248
265 305 316 307 346 119 122 116 117 68 52 25 19 14 16 23 27 31 33 30 27 22 16 10 8 9 6 1 342 256 245 232 227 221 216 208 206 209 217 220 224 225 229 242
310 10 352 52 97 98 105 113 102 80 65 52 44 39 38 38 38 42 40 33 29 25 20 15 14 12 8 2 352 332 306 264 237 235 233 227 226 229 226 226 233 237 239 242
292 235 223 173 125 117 94 90 94 82 70 60 53 48 44 43 40 42 42 33 28 26 21 17 12 6 2 359 353 343 335 313 273 255 247 247 245 243 239 231 231 235 239 242
331 3 342 107 134 131 131 117 95 87 78 69 59 52 45 41 37 36 34 29 23 21 16 11 5 358 354 350 344 341 335 322 304 284 271 266 260 251 243 239 238 229 229 236